APRIZESAT 1

导读

APRIZESAT 1是美国于2004年6月29日发射的一颗小型技术演示卫星,作为早期商业遥感技术验证平台,它承担了低分辨率成像技术测试任务,为后续私营卫星遥感产业发展积累了关键轨道运行数据。虽然体量小巧,但它是美国民营航天探索遥感应用的重要早期尝试,推动了商业卫星技术从概念走向实用化进程。

基本信息
目录编号:
28372
目录名称:
APRIZESAT 1
国际标识:
2004-025G
轨道中心:
EARTH
卫星名称:
APRIZESAT 1
卫星全名:
--
卫星状态:
在轨 (已飞行8109 天)
发射日期:
2004-06-29 UTC
国别 :
美国 (US)
星等 :
--
该卫星已列入 空间交会检测服务 Space Conjunction Data Service (SCDS) ,当前飞行风险评估等级: 无高风险
轨道信息
数据来源 国际轨道数据
星历时间: 2026-09-10T21:10:18+0800
17小时前
查看轨道信息
半长轴: 7097.86km
偏心率: 0.0043362
轨道倾角: 98.632°
近地点辐角 255.318°
升交点赤经 266.608°
平近点角 104.321°
近地点: 688.945km
远地点: 750.501km
周期: 99.186分钟
每日圈数: 14.518162
详细信息
使用方式:
暂无
2D轨道图
3D轨道图
轨道高度分析图
轨道倾角分析图
轨道综合分析图
查看轨道综合分析图
与全量物体交会距离演化趋势
与全量物体交会风险概率演化趋势